Carmi, IL

4:04 AM CST on February 23, 2017 (GMT -0600)
Carmi Municipal

Weather History for KCUL - February, 2012

Change the Weather History Date:

Wednesday, February 1, 2012

  Actual Average (KEHR) Record (KEHR)
Temperature  
Mean Temperature 54 °F -  
Max Temperature 63 °F 46 °F 69 °F (1967)
Min Temperature 45 °F 28 °F 1 °F (1945)
Degree Days  
Heating Degree Days 11    
Growing Degree Days 4 (Base 50)    
Moisture  
Dew Point 49 °F    
Average Humidity 80    
Maximum Humidity 99    
Minimum Humidity 52    
Precipitation  
Precipitation 0.00 in - - ()
Sea Level Pressure  
Sea Level Pressure 30.06 in    
Wind  
Wind Speed 6 mph (West)    
Max Wind Speed 10 mph    
Max Gust Speed 16 mph    
Visibility 8 miles    
Events      
Averages and records for this station are not official NWS values.
T = Trace of Precipitation, MM = Missing Value Source: NWS Daily Summary

Daily Weather History Graph

Daily Weather History Graph

Search for Another Location

Airport or City:

Trip Planner

Search our weather history database for the weather conditions in past years. The results will help you decide how hot, cold, wet, or windy it might be!

Date:

Astronomy

Feb. 01, 2012 Rise Set
Actual Time 6:57 AM CST 5:14 PM CST
Civil Twilight 6:29 AM CST 5:42 PM CST
Nautical Twilight 5:58 AM CST 6:14 PM CST
Astronomical Twilight 5:27 AM CST 6:45 PM CST
Moon 11:44 AM CST (2/1) 1:41 AM CST (2/1)
Length of Visible Light 11h 13m
Length of Day
10h 17m
Waxing Gibbous, 65% of the Moon is Illuminated
Feb 1
Waxing Gibbous
Feb 7
Full
Feb 14
Last Quarter
Feb 21
New
Feb 29
First Quarter

Hourly Weather History & Observations

Time (CST) Temp. Windchill Dew Point Humidity Pressure Visibility Wind Dir Wind Speed Gust Speed Precip Events Conditions
12:15 AM 54.3 °F - 50.9 °F 88% 30.03 in 10.0 mi South 9.2 mph - N/A   Mostly Cloudy
12:35 AM 54.5 °F - 50.9 °F 88% 30.02 in 10.0 mi South 10.4 mph 16.1 mph N/A   Overcast
12:55 AM 53.6 °F - 50.2 °F 88% 30.02 in 10.0 mi South 9.2 mph - N/A   Overcast
1:15 AM 52.7 °F - 50.0 °F 91% 30.02 in 10.0 mi South 9.2 mph - N/A   Mostly Cloudy
1:35 AM 52.0 °F - 49.5 °F 91% 30.04 in 10.0 mi South 6.9 mph - N/A   Scattered Clouds
1:55 AM 51.8 °F - 49.1 °F 90% 30.04 in 10.0 mi South 8.1 mph - N/A   Scattered Clouds
2:15 AM 51.8 °F - 49.6 °F 92% 30.04 in 10.0 mi South 5.8 mph - N/A   Mostly Cloudy
2:35 AM 54.5 °F - 51.4 °F 89% 30.04 in 10.0 mi SW 6.9 mph - N/A   Overcast
2:55 AM 55.6 °F - 51.8 °F 87% 30.05 in 10.0 mi SW 8.1 mph - N/A   Overcast
3:15 AM 54.5 °F - 51.1 °F 88% 30.04 in 10.0 mi SSW 6.9 mph - N/A   Mostly Cloudy
3:35 AM 53.6 °F - 50.9 °F 91% 30.04 in 10.0 mi SW 6.9 mph - N/A   Scattered Clouds
3:55 AM 52.3 °F - 50.0 °F 92% 30.04 in 10.0 mi SW 6.9 mph - N/A   Scattered Clouds
4:15 AM 53.2 °F - 50.9 °F 92% 30.05 in 10.0 mi SSW 8.1 mph - N/A   Mostly Cloudy
4:35 AM 52.2 °F - 50.0 °F 92% 30.05 in 10.0 mi SSW 8.1 mph - N/A   Scattered Clouds
4:55 AM 52.2 °F - 50.4 °F 94% 30.05 in 7.0 mi SSW 6.9 mph - N/A   Clear
5:15 AM 51.6 °F - 49.8 °F 94% 30.05 in 7.0 mi SW 6.9 mph - N/A   Clear
5:35 AM 50.2 °F - 48.9 °F 95% 30.05 in 7.0 mi SW 5.8 mph - N/A   Clear
5:55 AM 49.5 °F - 48.4 °F 96% 30.06 in 5.0 mi SW 4.6 mph - N/A   Scattered Clouds
6:15 AM 46.4 °F 43.5 °F 45.5 °F 97% 30.06 in 1.2 mi SSE 5.8 mph - N/A   Mist
6:35 AM 46.8 °F - 46.2 °F 98% 30.07 in 0.8 mi Calm Calm - N/A   Mist
6:55 AM 45.5 °F - 45.1 °F 99% 30.07 in 0.5 mi Calm Calm - N/A Fog Fog
7:15 AM 45.7 °F - 45.3 °F 99% 30.08 in 0.8 mi Calm Calm - N/A   Overcast
7:35 AM 46.2 °F - 45.9 °F 99% 30.09 in 2.5 mi Calm Calm - N/A   Overcast
7:55 AM 47.5 °F - 47.3 °F 99% 30.10 in 1.2 mi Calm Calm - N/A   Overcast
8:15 AM 49.1 °F - 48.6 °F 98% 30.10 in 1.2 mi Calm Calm - N/A   Overcast
8:35 AM 50.2 °F - 49.6 °F 98% 30.10 in 1.5 mi Calm Calm - N/A   Overcast
8:55 AM 52.0 °F - 51.6 °F 99% 30.10 in 1.8 mi Calm Calm - N/A   Overcast
9:15 AM 53.6 °F - 52.7 °F 97% 30.10 in 5.0 mi Calm Calm - N/A   Scattered Clouds
9:35 AM 54.7 °F - 52.9 °F 94% 30.10 in 7.0 mi Calm Calm - N/A   Mostly Cloudy
9:55 AM 56.5 °F - 53.2 °F 89% 30.10 in 7.0 mi Calm Calm - N/A   Scattered Clouds
10:15 AM 57.2 °F - 53.1 °F 86% 30.10 in 7.0 mi Calm Calm - N/A   Clear
10:35 AM 59.0 °F - 53.1 °F 81% 30.10 in 7.0 mi Calm Calm - N/A   Scattered Clouds
10:55 AM 59.9 °F - 53.6 °F 80% 30.10 in 7.0 mi Calm Calm - N/A   Scattered Clouds
11:15 AM 60.4 °F - 53.6 °F 78% 30.09 in 10.0 mi Calm Calm - N/A   Mostly Cloudy
11:35 AM 61.2 °F - 53.2 °F 75% 30.07 in 7.0 mi Calm Calm - N/A   Overcast
11:55 AM 60.4 °F - 52.5 °F 75% 30.07 in 7.0 mi Calm Calm - N/A   Overcast
12:15 PM 61.3 °F - 52.5 °F 73% 30.06 in 7.0 mi Calm Calm - N/A   Mostly Cloudy
12:35 PM 61.9 °F - 51.8 °F 69% 30.05 in 10.0 mi Calm Calm - N/A   Scattered Clouds
12:55 PM 62.2 °F - 52.0 °F 69% 30.05 in 7.0 mi Calm Calm - N/A   Mostly Cloudy
1:15 PM 62.2 °F - 51.8 °F 69% 30.04 in 10.0 mi Calm Calm - N/A   Overcast
1:35 PM 62.2 °F - 51.4 °F 68% 30.04 in 7.0 mi WNW 5.8 mph - N/A   Mostly Cloudy
1:55 PM 62.6 °F - 50.5 °F 65% 30.04 in 10.0 mi NW 4.6 mph - N/A   Mostly Cloudy
2:15 PM 62.6 °F - 49.6 °F 63% 30.05 in 10.0 mi WNW 4.6 mph - N/A   Overcast
2:35 PM 63.0 °F - 49.6 °F 62% 30.04 in 10.0 mi WNW 3.5 mph - N/A   Mostly Cloudy
2:55 PM 62.6 °F - 48.4 °F 60% 30.04 in 10.0 mi West 3.5 mph - N/A   Mostly Cloudy
3:15 PM 62.6 °F - 47.5 °F 58% 30.04 in 7.0 mi Calm Calm - N/A   Overcast
3:35 PM 63.1 °F - 45.3 °F 52% 30.04 in 10.0 mi WNW 5.8 mph - N/A   Mostly Cloudy
3:55 PM 62.2 °F - 46.4 °F 56% 30.03 in 10.0 mi NNW 9.2 mph - N/A   Scattered Clouds
4:15 PM 61.9 °F - 45.9 °F 56% 30.03 in 10.0 mi North 8.1 mph - N/A   Clear
4:35 PM 59.5 °F - 45.7 °F 60% 30.03 in 10.0 mi North 9.2 mph - N/A   Scattered Clouds
4:55 PM 57.7 °F - 44.6 °F 62% 30.03 in 10.0 mi North 9.2 mph - N/A   Clear
5:15 PM 55.8 °F - 43.7 °F 64% 30.03 in 10.0 mi North 8.1 mph - N/A   Clear
5:35 PM 54.0 °F - 43.0 °F 66% 30.04 in 10.0 mi NNW 9.2 mph - N/A   Scattered Clouds
5:55 PM 52.7 °F - 42.4 °F 68% 30.05 in 10.0 mi NNW 6.9 mph - N/A   Scattered Clouds
6:15 PM 51.6 °F - 42.3 °F 70% 30.07 in 10.0 mi NNW 5.8 mph - N/A   Clear
6:35 PM 50.9 °F - 42.6 °F 73% 30.07 in 10.0 mi NNW 5.8 mph - N/A   Clear
6:55 PM 50.0 °F - 41.5 °F 73% 30.07 in 10.0 mi NNW 5.8 mph - N/A   Clear
7:15 PM 49.3 °F - 42.6 °F 78% 30.07 in 10.0 mi NW 6.9 mph - N/A   Clear
7:35 PM 49.3 °F - 42.1 °F 76% 30.08 in 10.0 mi NW 6.9 mph - N/A   Clear
7:55 PM 49.1 °F - 41.7 °F 76% 30.09 in 10.0 mi NW 8.1 mph - N/A   Clear
8:15 PM 49.1 °F - 41.9 °F 76% 30.10 in 10.0 mi NW 9.2 mph - N/A   Clear
8:35 PM 50.0 °F - 42.1 °F 74% 30.11 in 10.0 mi NNW 8.1 mph - N/A   Clear
8:55 PM 49.1 °F - 42.1 °F 77% 30.11 in 10.0 mi NNW 5.8 mph - N/A   Clear
9:15 PM 47.3 °F - 41.7 °F 81% 30.11 in 10.0 mi NW 5.8 mph - N/A   Clear
9:35 PM 45.7 °F 41.5 °F 41.0 °F 84% 30.12 in 10.0 mi NW 8.1 mph - N/A   Clear
9:55 PM 45.5 °F 41.8 °F 41.0 °F 84% 30.13 in 10.0 mi NW 6.9 mph - N/A   Clear
10:15 PM 44.6 °F 40.7 °F 40.3 °F 85% 30.13 in 10.0 mi NW 6.9 mph - N/A   Clear
10:35 PM 43.7 °F 40.3 °F 40.3 °F 88% 30.13 in 10.0 mi NW 5.8 mph - N/A   Clear
10:55 PM 43.5 °F 39.4 °F 40.1 °F 88% 30.13 in 10.0 mi NW 6.9 mph - N/A   Clear
11:15 PM 41.9 °F 38.2 °F 39.2 °F 90% 30.14 in 7.0 mi NW 5.8 mph - N/A   Clear
11:35 PM 42.4 °F 38.1 °F 39.6 °F 90% 30.15 in 10.0 mi NW 6.9 mph - N/A   Clear
11:55 PM 41.9 °F 38.2 °F 39.6 °F 91% 30.16 in 10.0 mi WNW 5.8 mph - N/A   Clear